Time,TemperatureF,DewpointF,PressureIn,WindDirection,WindDirectionDegrees,WindSpeedMPH,WindSpeedGustMPH,Humidity,HourlyPrecipIn,Conditions,Clouds,dailyrainin,SoftwareType,DateUTC
2013-10-15 02:22:00,60.0,42.0,30.02,NE,51,7.0,7.0,51,-99.99,,,-99.99,,2013-10-15 09:22:00,
2013-10-15 02:53:00,59.0,41.0,30.02,ENE,64,2.0,3.0,51,-99.99,,,-99.99,,2013-10-15 09:53:00,
2013-10-15 03:12:00,58.0,41.0,30.02,NE,48,1.0,2.0,53,-99.99,,,-99.99,,2013-10-15 10:12:00,
2013-10-15 04:22:00,57.0,41.0,30.00,ENE,58,2.0,5.0,54,-99.99,,,-99.99,,2013-10-15 11:22:00,
2013-10-15 04:42:00,55.0,39.0,30.00,NE,49,2.0,6.0,54,-99.99,,,-99.99,,2013-10-15 11:42:00,
2013-10-15 04:52:00,55.0,39.0,30.00,NE,49,2.0,6.0,54,-99.99,,,-99.99,,2013-10-15 11:52:00,
2013-10-15 06:11:00,55.0,38.0,30.00,NE,47,6.0,6.0,52,-99.99,,,-99.99,,2013-10-15 13:11:00,
2013-10-15 06:21:00,55.0,38.0,30.00,NE,40,6.0,7.0,52,-99.99,,,-99.99,,2013-10-15 13:21:00,
2013-10-15 07:11:00,54.0,38.0,30.01,NE,49,2.0,5.0,55,-99.99,,,-99.99,,2013-10-15 14:11:00,
2013-10-15 09:22:00,55.0,36.0,30.02,East,83,5.0,7.0,49,-99.99,,,-99.99,,2013-10-15 16:22:00,
2013-10-15 10:22:00,63.0,37.0,30.02,East,83,10.0,11.0,38,-99.99,,,-99.99,,2013-10-15 17:22:00,
2013-10-15 10:32:00,63.0,37.0,30.02,East,83,10.0,11.0,38,-99.99,,,-99.99,,2013-10-15 17:32:00,
2013-10-15 10:42:00,63.0,37.0,30.02,East,83,10.0,11.0,38,-99.99,,,-99.99,,2013-10-15 17:42:00,
2013-10-15 12:21:00,75.0,36.0,29.99,NE,37,3.0,13.0,24,-99.99,,,-99.99,,2013-10-15 19:21:00,
2013-10-15 12:42:00,76.0,37.0,29.99,East,83,10.0,13.0,24,-99.99,,,-99.99,,2013-10-15 19:42:00,
2013-10-15 12:52:00,76.0,36.0,29.98,ENE,65,11.0,14.0,23,-99.99,,,-99.99,,2013-10-15 19:52:00,
2013-10-15 13:03:00,76.0,36.0,29.98,ENE,65,11.0,14.0,23,-99.99,,,-99.99,,2013-10-15 20:03:00,
2013-10-15 13:12:00,76.0,36.0,29.98,ENE,65,11.0,14.0,23,-99.99,,,-99.99,,2013-10-15 20:12:00,
2013-10-15 13:21:00,79.0,38.0,29.97,NNE,25,8.0,14.0,23,-99.99,,,-99.99,,2013-10-15 20:21:00,
2013-10-15 13:42:00,80.0,37.0,29.96,NE,38,8.0,11.0,21,-99.99,,,-99.99,,2013-10-15 20:42:00,
2013-10-15 13:52:00,81.0,37.0,29.96,NE,34,3.0,11.0,21,-99.99,,,-99.99,,2013-10-15 20:52:00,
2013-10-15 14:02:00,81.0,37.0,29.96,NE,34,3.0,11.0,21,-99.99,,,-99.99,,2013-10-15 21:02:00,
2013-10-15 14:22:00,81.0,35.0,29.94,ENE,59,5.0,12.0,19,-99.99,,,-99.99,,2013-10-15 21:22:00,
2013-10-15 14:34:00,81.0,35.0,29.94,ENE,59,5.0,12.0,19,-99.99,,,-99.99,,2013-10-15 21:34:00,
2013-10-15 14:44:00,81.0,35.0,29.94,ENE,59,5.0,12.0,19,-99.99,,,-99.99,,2013-10-15 21:44:00,
2013-10-15 14:54:00,83.0,34.0,29.94,NE,45,7.0,13.0,17,-99.99,,,-99.99,,2013-10-15 21:54:00,
2013-10-15 15:13:00,83.0,35.0,29.93,NE,51,5.0,13.0,18,-99.99,,,-99.99,,2013-10-15 22:13:00,
2013-10-15 15:23:00,83.0,35.0,29.93,NE,51,5.0,13.0,18,-99.99,,,-99.99,,2013-10-15 22:23:00,
2013-10-15 15:43:00,83.0,35.0,29.93,NE,49,5.0,12.0,18,-99.99,,,-99.99,,2013-10-15 22:43:00,
2013-10-15 15:53:00,83.0,35.0,29.93,NNE,14,6.0,12.0,18,-99.99,,,-99.99,,2013-10-15 22:53:00,
2013-10-15 16:22:00,84.0,36.0,29.92,North,349,7.0,7.0,18,-99.99,,,-99.99,,2013-10-15 23:22:00,
2013-10-15 16:43:00,83.0,36.0,29.93,NNE,24,2.0,7.0,19,-99.99,,,-99.99,,2013-10-15 23:43:00,
2013-10-15 16:52:00,83.0,36.0,29.93,NNE,24,2.0,7.0,19,-99.99,,,-99.99,,2013-10-15 23:52:00,
2013-10-15 17:11:00,83.0,36.0,29.93,NNW,333,1.0,7.0,19,-99.99,,,-99.99,,2013-10-16 00:11:00,
2013-10-15 17:22:00,83.0,36.0,29.92,North,0,3.0,7.0,19,-99.99,,,-99.99,,2013-10-16 00:22:00,
2013-10-15 17:42:00,83.0,36.0,29.92,NE,42,2.0,8.0,19,-99.99,,,-99.99,,2013-10-16 00:42:00,
2013-10-15 17:52:00,81.0,36.0,29.93,NNE,32,5.0,6.0,20,-99.99,,,-99.99,,2013-10-16 00:52:00,
2013-10-15 18:11:00,81.0,36.0,29.93,NE,42,2.0,8.0,20,-99.99,,,-99.99,,2013-10-16 01:11:00,
2013-10-15 18:22:00,81.0,36.0,29.93,NE,42,2.0,8.0,20,-99.99,,,-99.99,,2013-10-16 01:22:00,
2013-10-15 18:42:00,78.0,39.0,29.93,WSW,240,2.0,4.0,25,-99.99,,,-99.99,,2013-10-16 01:42:00,
2013-10-15 18:52:00,78.0,39.0,29.93,WSW,240,2.0,4.0,25,-99.99,,,-99.99,,2013-10-16 01:52:00,
2013-10-15 19:22:00,74.0,39.0,29.94,NW,305,2.0,2.0,28,-99.99,,,-99.99,,2013-10-16 02:22:00,
2013-10-15 19:42:00,73.0,37.0,29.95,NE,52,2.0,5.0,27,-99.99,,,-99.99,,2013-10-16 02:42:00,
2013-10-15 19:52:00,73.0,37.0,29.95,North,0,0.0,6.0,27,-99.99,,,-99.99,,2013-10-16 02:52:00,
2013-10-15 20:22:00,72.0,36.0,29.96,NNE,23,3.0,6.0,27,-99.99,,,-99.99,,2013-10-16 03:22:00,
2013-10-15 20:44:00,71.0,35.0,29.97,NNE,24,4.0,10.0,27,-99.99,,,-99.99,,2013-10-16 03:44:00,
2013-10-15 20:54:00,71.0,35.0,29.97,NNE,24,4.0,10.0,27,-99.99,,,-99.99,,2013-10-16 03:54:00,
2013-10-15 21:13:00,71.0,36.0,29.97,NNE,18,2.0,6.0,28,-99.99,,,-99.99,,2013-10-16 04:13:00,
2013-10-15 21:53:00,70.0,35.0,29.98,NNE,17,5.0,6.0,28,-99.99,,,-99.99,,2013-10-16 04:53:00,
2013-10-15 22:12:00,69.0,36.0,29.98,NE,51,5.0,11.0,30,-99.99,,,-99.99,,2013-10-16 05:12:00,
2013-10-15 22:22:00,69.0,36.0,29.98,NE,51,5.0,11.0,30,-99.99,,,-99.99,,2013-10-16 05:22:00,
2013-10-15 22:34:00,69.0,36.0,29.98,NE,51,5.0,11.0,30,-99.99,,,-99.99,,2013-10-16 05:34:00,
2013-10-15 23:12:00,67.0,36.0,29.99,NE,48,5.0,7.0,32,-99.99,,,-99.99,,2013-10-16 06:12:00,